[[{"header":{"parameterUnit":"m.s-1","parameterCategory":2,"la1":30.2992,"la2":30.254,"lo1":-89.0895,"lo2":-89.0443,"dy":0.0025,"dx":0.0025,"nx":19,"ny":19,"refTime":"2026-04-21T21:00:00:Z","depth":"0","parameterNumber":2,"parameterNumberName":"U-component_of_CURRENTS"},"data":[0,0,0,-0.3617,-0.362,-0.3721,-0.3722,-0.3636,-0.3635,0,0,0,0,0,0,0,0,0,0,0,-0.3574,-0.3575,-0.3617,-0.362,-0.3721,-0.3722,-0.3636,-0.3635,0,0,0,0,0,0,0,0,0,0,0,-0.3573,-0.3574,-0.3576,-0.3621,-0.3721,-0.3722,-0.3636,-0.3608,0,0,0,0,0,0,0,0,0,0,-0.3534,-0.3517,-0.3574,-0.3576,-0.3621,-0.3721,-0.3722,-0.3609,-0.3609,-0.3536,0,-0.3571,0,-0.361,-0.3626,-0.3626,0,0,0,-0.3597,-0.3516,-0.3566,-0.3576,-0.3623,-0.3721,-0.3669,-0.3611,-0.3611,-0.3536,-0.357,-0.3569,-0.3608,-0.3625,-0.3625,-0.3501,-0.35,0,0,-0.3591,-0.356,-0.3566,-0.3567,-0.3669,-0.3666,-0.3673,-0.3613,-0.3603,-0.357,-0.3568,-0.3607,-0.3625,-0.3624,-0.3501,-0.3501,0,0,0,-0.3591,-0.3556,-0.361,-0.3569,-0.361,-0.367,-0.3677,-0.3606,-0.3632,-0.3568,-0.3606,-0.3624,-0.3622,-0.3502,-0.3501,-0.351,0,0,0,-0.3586,-0.3558,-0.3608,-0.3586,-0.3613,-0.3635,-0.367,-0.3636,-0.3632,-0.3606,-0.3624,-0.3621,-0.3502,-0.3501,-0.3511,-0.3498,0,0,0,-0.3565,-0.3555,-0.358,-0.3585,-0.3644,-0.3639,-0.366,-0.3637,-0.3654,-0.3626,-0.3621,-0.3502,-0.3501,-0.3511,-0.35,-0.3494,0,0,0,-0.351,-0.3584,-0.3579,-0.3663,-0.3643,-0.3685,-0.3662,-0.3676,-0.3658,-0.3623,-0.3502,-0.3501,-0.3512,-0.35,-0.3495,-0.3303,-0.3285,0,0,-0.3583,-0.3591,-0.3645,-0.3646,-0.3685,-0.3668,-0.3657,-0.3633,-0.3608,-0.3503,-0.3502,-0.3511,-0.35,-0.3495,-0.3248,-0.3231,0,0,0,-0.3657,-0.3656,-0.3685,-0.3695,-0.3728,-0.3674,-0.3648,-0.3625,-0.3566,-0.36,-0.3488,-0.348,-0.3477,-0.3362,-0.3348,-0.3248,-0.3497,-0.3497,-0.3497,-0.3601,-0.3639,-0.3648,-0.3658,-0.3671,-0.3647,-0.3624,-0.356,-0.3545,-0.3521,-0.3472,-0.3449,-0.3325,-0.3313,-0.3212,-0.3462,-0.3462,-0.3462,-0.3462,-0.3555,-0.3497,-0.3535,-0.3549,-0.3526,-0.3488,-0.3499,-0.3507,-0.3458,-0.3452,-0.345,-0.3357,-0.3298,-0.3195,-0.3463,-0.3462,-0.3462,-0.3462,-0.3462,-0.3382,-0.3349,-0.3386,-0.3358,-0.3338,-0.3376,-0.3367,-0.3412,-0.3433,-0.3438,-0.3306,-0.3304,-0.3227,-0.3439,-0.3439,-0.3439,-0.3439,-0.3439,-0.3439,-0.3136,-0.3176,-0.3131,-0.3161,-0.3152,-0.3184,-0.3283,-0.3299,-0.329,-0.3277,-0.3275,-0.3175,-0.3442,-0.3459,-0.3438,-0.3438,-0.3438,-0.3438,-0.3438,-0.2847,-0.2916,-0.2845,-0.2841,-0.2871,-0.2831,-0.3025,-0.3032,-0.3094,-0.3041,-0.2948,-0.3189,-0.3165,-0.3173,-0.3182,-0.309,-0.309,-0.309,-0.309,-0.2636,-0.2673,-0.2563,-0.2538,-0.2547,-0.2645,-0.2543,-0.2625,-0.2687,-0.265,-0.2753,-0.27,-0.2719,-0.2669,-0.2688,-0.2687,-0.2473,-0.2472,-0.2472,-0.2428,-0.2447,-0.2302,-0.2345,-0.2369,-0.2396,-0.2213,-0.219,-0.2325,-0.2447,-0.2655,-0.2681,-0.2612,-0.2649,-0.258,-0.2615,-0.2618,0,0]},{"header":{"parameterUnit":"m.s-1","parameterCategory":2,"la1":30.2992,"la2":30.254,"lo1":-89.0895,"lo2":-89.0443,"dy":0.0025,"dx":0.0025,"nx":19,"ny":19,"refTime":"2026-04-21T21:00:00:Z","depth":"0","parameterNumber":3,"parameterNumberName":"V-component_of_CURRENTS"},"data":[0,0,0,-0.0596,-0.0593,-0.0426,-0.0425,-0.0171,-0.0169,0,0,0,0,0,0,0,0,0,0,0,-0.0658,-0.0658,-0.0596,-0.0593,-0.0426,-0.0425,-0.0171,-0.0169,0,0,0,0,0,0,0,0,0,0,0,-0.0658,-0.0658,-0.0657,-0.0593,-0.0426,-0.0425,-0.0172,-0.03,0,0,0,0,0,0,0,0,0,0,-0.0464,-0.0541,-0.0658,-0.0657,-0.0592,-0.0427,-0.0425,-0.0307,-0.0292,-0.0245,0,-0.0242,0,-0.021,-0.0154,-0.0153,0,0,0,-0.0562,-0.0553,-0.0511,-0.0657,-0.0591,-0.0427,-0.0493,-0.0299,-0.0282,-0.0226,-0.0239,-0.0229,-0.0206,-0.0152,-0.0151,-0.0034,-0.0034,0,0,-0.0571,-0.0614,-0.0523,-0.0502,-0.0576,-0.0498,-0.0488,-0.0289,-0.0282,-0.0238,-0.0223,-0.0202,-0.0151,-0.0149,-0.0034,-0.0034,0,0,0,-0.0619,-0.0621,-0.0583,-0.0513,-0.0491,-0.0494,-0.0482,-0.029,-0.028,-0.022,-0.0199,-0.015,-0.0147,-0.0033,-0.0034,-0.0169,0,0,0,-0.0623,-0.065,-0.0588,-0.061,-0.0496,-0.0395,-0.0489,-0.0293,-0.027,-0.02,-0.0149,-0.0145,-0.0033,-0.0034,-0.0165,-0.0221,0,0,0,-0.066,-0.0654,-0.0645,-0.0613,-0.0554,-0.0398,-0.0374,-0.0287,-0.0258,-0.0153,-0.0144,-0.0032,-0.0033,-0.0161,-0.0213,-0.0182,0,0,0,-0.0693,-0.0735,-0.0646,-0.0674,-0.0557,-0.0495,-0.0375,-0.0305,-0.023,-0.0148,-0.0033,-0.0034,-0.0159,-0.0209,-0.0179,-0.0063,-0.0068,0,0,-0.0775,-0.0745,-0.0762,-0.068,-0.0666,-0.0514,-0.0477,-0.0327,-0.0224,-0.0088,-0.0085,-0.0166,-0.0213,-0.0182,-0.0119,-0.0122,0,0,0,-0.0806,-0.082,-0.08,-0.0763,-0.0678,-0.0587,-0.0435,-0.0364,-0.0246,-0.0187,-0.0148,-0.0172,-0.0148,-0.0071,-0.0074,0.0238,-0.0038,-0.0038,-0.0038,-0.0954,-0.09,-0.0916,-0.0838,-0.0784,-0.0627,-0.0552,-0.0419,-0.0314,-0.0294,-0.027,-0.0322,-0.0245,-0.0245,0.0073,-0.0254,-0.0255,-0.0255,-0.0256,-0.107,-0.1071,-0.0992,-0.0993,-0.0875,-0.0816,-0.064,-0.0558,-0.0431,-0.0368,-0.0337,-0.0203,-0.0256,0.0086,-0.0264,-0.0263,-0.0262,-0.0261,-0.026,-0.1156,-0.1149,-0.1139,-0.1111,-0.106,-0.0925,-0.0859,-0.0718,-0.0553,-0.0532,-0.0349,-0.0344,-0.0047,-0.049,-0.049,-0.049,-0.049,-0.049,-0.049,-0.1238,-0.1226,-0.1262,-0.1228,-0.1214,-0.1154,-0.0978,-0.0867,-0.0622,-0.047,-0.0467,-0.0015,-0.0391,-0.0386,-0.0493,-0.0492,-0.0492,-0.0492,-0.0491,-0.1322,-0.1328,-0.1382,-0.1394,-0.1367,-0.132,-0.1161,-0.0842,-0.0686,-0.0527,0.0031,-0.0395,-0.0318,-0.0312,-0.0302,-0.038,-0.038,-0.038,-0.038,-0.1381,-0.1388,-0.1462,-0.1499,-0.1507,-0.1394,-0.1176,-0.0791,-0.0176,0.0174,0.025,0.0353,0.0335,0.0457,0.0445,0.0474,0.0595,0.0596,0.0598,-0.1423,-0.1442,-0.1499,-0.1538,-0.1559,-0.1448,-0.1174,-0.0634,0.0273,0.0667,0.0661,0.0619,0.0796,0.0742,0.0954,0.0913,0.0966,0,0]}],[{"header":{"parameterUnit":"m.s-1","parameterCategory":2,"la1":30.2992,"la2":30.254,"lo1":-89.0895,"lo2":-89.0443,"dy":0.0025,"dx":0.0025,"nx":19,"ny":19,"refTime":"2026-04-21T21:00:00:Z","depth":"2","parameterNumber":2,"parameterNumberName":"U-component_of_CURRENTS"},"data":[0,0,0,-0.2832,-0.2835,-0.2979,-0.298,-0.3066,-0.3067,0,0,0,0,0,0,0,0,0,0,0,-0.2774,-0.2775,-0.2832,-0.2835,-0.2979,-0.298,-0.3066,-0.3067,0,0,0,0,0,0,0,0,0,0,0,-0.2774,-0.2775,-0.2776,-0.2836,-0.2979,-0.298,-0.3066,-0.2981,0,0,0,0,0,0,0,0,0,0,-0.2854,-0.2804,-0.2775,-0.2776,-0.2837,-0.2979,-0.298,-0.2978,-0.2987,-0.2973,0,-0.2996,0,-0.3035,-0.307,-0.307,0,0,0,-0.2835,-0.2797,-0.2848,-0.2776,-0.2838,-0.2979,-0.2914,-0.2984,-0.2993,-0.2983,-0.2998,-0.3002,-0.3037,-0.3071,-0.3071,-0.3108,-0.3108,0,0,-0.2827,-0.2788,-0.2842,-0.2854,-0.2875,-0.291,-0.2919,-0.2991,-0.2989,-0.2998,-0.3005,-0.3038,-0.3071,-0.3071,-0.3108,-0.3108,0,0,0,-0.2804,-0.2782,-0.2833,-0.2849,-0.2885,-0.2914,-0.2924,-0.2986,-0.3007,-0.3006,-0.3039,-0.3071,-0.3072,-0.3108,-0.3108,-0.3122,0,0,0,-0.28,-0.277,-0.283,-0.2806,-0.2884,-0.2948,-0.2918,-0.3002,-0.3012,-0.3039,-0.3071,-0.3072,-0.3108,-0.3108,-0.3122,-0.3116,0,0,0,-0.2768,-0.2766,-0.2786,-0.2804,-0.2869,-0.2949,-0.2974,-0.3006,-0.3032,-0.307,-0.3073,-0.3108,-0.3108,-0.3122,-0.3116,-0.3119,0,0,0,-0.2719,-0.2772,-0.2784,-0.2855,-0.2868,-0.2976,-0.2975,-0.3053,-0.3091,-0.3072,-0.3108,-0.3108,-0.3122,-0.3116,-0.3118,-0.2901,-0.2884,0,0,-0.2768,-0.2777,-0.2824,-0.284,-0.2935,-0.2956,-0.3029,-0.3077,-0.3078,-0.3077,-0.3079,-0.3122,-0.3116,-0.3119,-0.2902,-0.2884,0,0,0,-0.2829,-0.2842,-0.2883,-0.2931,-0.3009,-0.3044,-0.3091,-0.3096,-0.3111,-0.3101,-0.3118,-0.3113,-0.3115,-0.2983,-0.297,-0.3108,-0.3108,-0.3108,-0.3108,-0.2778,-0.2843,-0.29,-0.2972,-0.3031,-0.3099,-0.3126,-0.3124,-0.3134,-0.3133,-0.3123,-0.3129,-0.2989,-0.2976,-0.3126,-0.3126,-0.3126,-0.3126,-0.3126,-0.2787,-0.2799,-0.2874,-0.2951,-0.3005,-0.3051,-0.3116,-0.313,-0.3136,-0.313,-0.3132,-0.3001,-0.2962,-0.3128,-0.3127,-0.3127,-0.3127,-0.3127,-0.3127,-0.2704,-0.2718,-0.278,-0.2854,-0.2914,-0.3003,-0.3032,-0.3097,-0.3128,-0.3141,-0.299,-0.2987,-0.3135,-0.3143,-0.3143,-0.3143,-0.3143,-0.3143,-0.3143,-0.2567,-0.2639,-0.2644,-0.2749,-0.2778,-0.2853,-0.2978,-0.3001,-0.2991,-0.2974,-0.2972,-0.3134,-0.3134,-0.3135,-0.3142,-0.3143,-0.3143,-0.3143,-0.3143,-0.2426,-0.2463,-0.2464,-0.2491,-0.2575,-0.2549,-0.2742,-0.2734,-0.2801,-0.2739,-0.2874,-0.288,-0.2851,-0.2858,-0.2852,-0.2786,-0.2786,-0.2786,-0.2786,-0.2285,-0.232,-0.2263,-0.2262,-0.2299,-0.2387,-0.2262,-0.229,-0.2421,-0.2432,-0.2448,-0.2385,-0.2406,-0.235,-0.2369,-0.2353,-0.2157,-0.2156,-0.2156,-0.2147,-0.2166,-0.2062,-0.2107,-0.2144,-0.2151,-0.1926,-0.1789,-0.1894,-0.2136,-0.2392,-0.2734,-0.268,-0.2698,-0.2647,-0.2664,-0.2651,0,0]},{"header":{"parameterUnit":"m.s-1","parameterCategory":2,"la1":30.2992,"la2":30.254,"lo1":-89.0895,"lo2":-89.0443,"dy":0.0025,"dx":0.0025,"nx":19,"ny":19,"refTime":"2026-04-21T21:00:00:Z","depth":"2","parameterNumber":3,"parameterNumberName":"V-component_of_CURRENTS"},"data":[0,0,0,-0.047,-0.0468,-0.0355,-0.0354,-0.0138,-0.0136,0,0,0,0,0,0,0,0,0,0,0,-0.0508,-0.0508,-0.047,-0.0468,-0.0355,-0.0354,-0.0138,-0.0136,0,0,0,0,0,0,0,0,0,0,0,-0.0508,-0.0508,-0.0508,-0.0468,-0.0355,-0.0354,-0.0138,-0.0235,0,0,0,0,0,0,0,0,0,0,-0.0351,-0.0407,-0.0508,-0.0508,-0.0467,-0.0355,-0.0354,-0.024,-0.0229,-0.0177,0,-0.0178,0,-0.0162,-0.0122,-0.0121,0,0,0,-0.0441,-0.0417,-0.0391,-0.0508,-0.0467,-0.0355,-0.0398,-0.0234,-0.0222,-0.0162,-0.0175,-0.0167,-0.0158,-0.0121,-0.012,0.0014,0.0014,0,0,-0.0447,-0.0473,-0.04,-0.0384,-0.0459,-0.0402,-0.0395,-0.0227,-0.0219,-0.0174,-0.0162,-0.0155,-0.012,-0.0118,0.0014,0.0014,0,0,0,-0.0483,-0.0478,-0.0457,-0.0392,-0.0383,-0.04,-0.0391,-0.0226,-0.0221,-0.016,-0.0152,-0.0118,-0.0116,0.0014,0.0014,-0.0102,0,0,0,-0.0486,-0.0501,-0.046,-0.0472,-0.0388,-0.0313,-0.0394,-0.0232,-0.0213,-0.0153,-0.0118,-0.0114,0.0014,0.0014,-0.0098,-0.015,0,0,0,-0.0509,-0.0503,-0.0498,-0.0475,-0.0438,-0.0316,-0.03,-0.0228,-0.0209,-0.0121,-0.0113,0.0014,0.0014,-0.0096,-0.0145,-0.0123,0,0,0,-0.0526,-0.0566,-0.0499,-0.0528,-0.044,-0.0398,-0.0301,-0.0249,-0.0186,-0.0117,0.0014,0.0014,-0.0095,-0.0141,-0.012,-0.0044,-0.005,0,0,-0.0597,-0.0575,-0.0592,-0.0531,-0.0531,-0.0411,-0.0377,-0.0255,-0.0164,-0.0031,-0.0028,-0.0099,-0.0144,-0.0122,-0.0053,-0.0058,0,0,0,-0.0628,-0.0641,-0.0628,-0.0605,-0.0543,-0.0468,-0.0343,-0.0275,-0.0164,-0.013,-0.007,-0.0093,-0.0076,-0.0024,-0.0028,0.0013,0.0013,0.0013,0.0013,-0.074,-0.0705,-0.0727,-0.0671,-0.0627,-0.0494,-0.0425,-0.0299,-0.021,-0.0181,-0.0166,-0.0201,-0.0148,-0.0149,-0.0138,-0.0139,-0.0139,-0.014,-0.014,-0.0847,-0.0865,-0.0795,-0.0811,-0.0709,-0.0656,-0.0483,-0.0408,-0.0285,-0.023,-0.0207,-0.0123,-0.016,-0.0148,-0.0147,-0.0146,-0.0145,-0.0144,-0.0144,-0.0931,-0.0938,-0.0933,-0.0926,-0.0879,-0.0755,-0.0686,-0.0548,-0.0394,-0.0373,-0.0241,-0.0237,-0.026,-0.0344,-0.0344,-0.0344,-0.0345,-0.0345,-0.0345,-0.1025,-0.1018,-0.1061,-0.1041,-0.1032,-0.0975,-0.0802,-0.0696,-0.0482,-0.0346,-0.0344,-0.0268,-0.0261,-0.0269,-0.0347,-0.0347,-0.0346,-0.0346,-0.0346,-0.1132,-0.113,-0.1193,-0.1208,-0.1184,-0.1138,-0.0982,-0.0703,-0.0561,-0.0428,-0.0294,-0.0295,-0.0234,-0.0228,-0.0232,-0.0297,-0.0297,-0.0297,-0.0297,-0.1203,-0.1207,-0.1283,-0.1316,-0.132,-0.1208,-0.1023,-0.0699,-0.0397,-0.0237,-0.024,-0.0199,-0.0202,-0.0136,-0.0133,-0.0133,-0.0172,-0.0172,-0.0172,-0.1258,-0.1274,-0.1333,-0.136,-0.1371,-0.1261,-0.1036,-0.0606,-0.0195,-0.0171,-0.0255,-0.0281,-0.0226,-0.0229,-0.0127,-0.0122,-0.0122,0,0]}],[{"header":{"parameterUnit":"m.s-1","parameterCategory":2,"la1":30.2992,"la2":30.254,"lo1":-89.0895,"lo2":-89.0443,"dy":0.0025,"dx":0.0025,"nx":19,"ny":19,"refTime":"2026-04-21T21:00:00:Z","depth":"4","parameterNumber":2,"parameterNumberName":"U-component_of_CURRENTS"},"data":[0,0,0,-0.1929,-0.1934,-0.2163,-0.2164,-0.2389,-0.239,0,0,0,0,0,0,0,0,0,0,0,-0.1847,-0.1848,-0.1929,-0.1934,-0.2163,-0.2164,-0.2388,-0.239,0,0,0,0,0,0,0,0,0,0,0,-0.1847,-0.1848,-0.185,-0.1935,-0.2163,-0.2165,-0.2388,-0.2236,0,0,0,0,0,0,0,0,0,0,-0.2023,-0.1958,-0.1848,-0.185,-0.1936,-0.2163,-0.2165,-0.2229,-0.2245,-0.226,0,-0.2291,0,-0.234,-0.2402,-0.2403,0,0,0,-0.195,-0.1945,-0.1998,-0.185,-0.1938,-0.2162,-0.2064,-0.2239,-0.2257,-0.2281,-0.2294,-0.2304,-0.2343,-0.2403,-0.2404,-0.2573,-0.2574,0,0,-0.1937,-0.1901,-0.1986,-0.2009,-0.199,-0.2057,-0.2071,-0.2251,-0.2269,-0.2295,-0.2309,-0.2347,-0.2405,-0.2406,-0.2573,-0.2574,0,0,0,-0.189,-0.1892,-0.1943,-0.1999,-0.2043,-0.2063,-0.208,-0.2262,-0.2276,-0.2312,-0.235,-0.2406,-0.2408,-0.2572,-0.2573,-0.2601,0,0,0,-0.1883,-0.1864,-0.1936,-0.1919,-0.204,-0.2167,-0.2086,-0.2264,-0.2286,-0.2349,-0.2406,-0.241,-0.2572,-0.2573,-0.2599,-0.2597,0,0,0,-0.1838,-0.186,-0.1881,-0.1916,-0.2009,-0.2165,-0.2192,-0.2271,-0.2308,-0.2403,-0.241,-0.2571,-0.2573,-0.2597,-0.2595,-0.2606,0,0,0,-0.18,-0.1837,-0.1881,-0.1947,-0.2006,-0.2158,-0.2192,-0.2322,-0.2407,-0.2407,-0.2572,-0.2573,-0.2597,-0.2593,-0.2605,-0.2268,0,0,0,-0.1821,-0.1839,-0.188,-0.1924,-0.2053,-0.2127,-0.2273,-0.2393,-0.2425,-0.2509,-0.2515,-0.26,-0.2594,-0.2606,-0.2343,0,0,0,0,-0.1871,-0.1903,-0.1948,-0.204,-0.2147,-0.2268,-0.239,-0.243,-0.2534,-0.2478,-0.2617,-0.2612,-0.2618,-0.2419,-0.2579,-0.2579,-0.2579,-0.2579,-0.2578,-0.1858,-0.193,-0.2017,-0.2127,-0.2226,-0.2383,-0.2465,-0.2543,-0.2577,-0.2618,-0.2648,-0.2692,-0.2484,-0.2671,-0.2671,-0.2671,-0.2671,-0.2671,-0.2671,-0.1895,-0.1939,-0.2062,-0.2173,-0.2302,-0.2432,-0.2563,-0.2602,-0.2684,-0.2688,-0.2693,-0.2479,-0.2674,-0.2674,-0.2673,-0.2673,-0.2673,-0.2672,-0.2672,-0.1871,-0.1896,-0.1998,-0.2152,-0.2304,-0.2454,-0.2529,-0.2639,-0.2699,-0.2726,-0.2511,-0.2708,-0.2689,-0.2738,-0.2738,-0.2738,-0.2738,-0.2738,-0.2738,-0.1777,-0.1878,-0.1945,-0.2121,-0.2207,-0.2339,-0.2516,-0.2542,-0.2641,-0.2498,-0.2737,-0.2714,-0.2712,-0.2693,-0.2739,-0.2739,-0.2739,-0.2738,-0.2738,-0.1694,-0.1745,-0.1821,-0.1904,-0.2072,-0.2138,-0.2357,-0.2337,-0.2341,-0.2267,-0.2369,-0.2387,-0.234,-0.2347,-0.2314,-0.2249,-0.2244,-0.224,0,-0.1595,-0.1639,-0.1685,-0.1746,-0.1806,-0.1993,-0.192,-0.1997,-0.2073,-0.2005,-0.2345,-0.2462,-0.2472,-0.2423,-0.2422,-0.2383,0,0,0,-0.1508,-0.1545,-0.1521,-0.1614,-0.166,-0.1719,-0.1883,-0.1813,-0.2087,-0.1968,-0.2135,-0.2162,-0.2508,-0.2742,-0.2713,-0.2711,-0.2679,0,0]},{"header":{"parameterUnit":"m.s-1","parameterCategory":2,"la1":30.2992,"la2":30.254,"lo1":-89.0895,"lo2":-89.0443,"dy":0.0025,"dx":0.0025,"nx":19,"ny":19,"refTime":"2026-04-21T21:00:00:Z","depth":"4","parameterNumber":3,"parameterNumberName":"V-component_of_CURRENTS"},"data":[0,0,0,-0.0324,-0.0324,-0.0276,-0.0275,-0.0118,-0.0117,0,0,0,0,0,0,0,0,0,0,0,-0.0337,-0.0338,-0.0324,-0.0324,-0.0276,-0.0275,-0.0118,-0.0117,0,0,0,0,0,0,0,0,0,0,0,-0.0337,-0.0337,-0.0338,-0.0324,-0.0276,-0.0275,-0.0119,-0.0174,0,0,0,0,0,0,0,0,0,0,-0.0231,-0.0266,-0.0337,-0.0338,-0.0324,-0.0276,-0.0275,-0.0177,-0.017,-0.0119,0,-0.0125,0,-0.0125,-0.0106,-0.0105,0,0,0,-0.0303,-0.0272,-0.0261,-0.0338,-0.0324,-0.0276,-0.0292,-0.0174,-0.0166,-0.011,-0.0123,-0.0118,-0.0123,-0.0105,-0.0104,0.0027,0.0027,0,0,-0.0306,-0.0319,-0.0267,-0.0257,-0.0326,-0.0293,-0.029,-0.017,-0.0164,-0.0123,-0.0115,-0.012,-0.0104,-0.0102,0.0027,0.0027,0,0,0,-0.0328,-0.0321,-0.0314,-0.0263,-0.0266,-0.0292,-0.0289,-0.0169,-0.0169,-0.0113,-0.0118,-0.0103,-0.0101,0.0026,0.0027,-0.0068,0,0,0,-0.0328,-0.0335,-0.0316,-0.0321,-0.027,-0.0231,-0.0291,-0.0177,-0.0164,-0.0119,-0.0103,-0.0099,0.0026,0.0027,-0.0066,-0.0109,0,0,0,-0.0337,-0.0336,-0.0336,-0.0322,-0.0312,-0.0234,-0.0225,-0.0174,-0.0167,-0.0105,-0.0099,0.0026,0.0027,-0.0065,-0.0105,-0.0091,0,0,0,-0.0342,-0.0374,-0.0336,-0.0365,-0.0313,-0.0295,-0.0226,-0.0198,-0.0154,-0.0102,0.0026,0.0027,-0.0064,-0.0103,-0.009,-0.0105,0,0,0,-0.0392,-0.038,-0.0397,-0.0364,-0.0378,-0.0299,-0.0277,-0.0193,-0.0121,-0.0003,-0.0001,-0.0067,-0.0105,-0.0091,-0.0072,0,0,0,0,-0.0419,-0.0434,-0.043,-0.0427,-0.0391,-0.0342,-0.0257,-0.0199,-0.0107,-0.0095,-0.0029,-0.0049,-0.0038,-0.004,0.0029,0.0029,0.0029,0.0029,0.0029,-0.0498,-0.0482,-0.0508,-0.0478,-0.0452,-0.036,-0.0307,-0.0201,-0.0134,-0.0103,-0.0099,-0.0116,-0.012,-0.0064,-0.0065,-0.0065,-0.0065,-0.0066,-0.0066,-0.0581,-0.0601,-0.0562,-0.0589,-0.052,-0.0485,-0.0339,-0.0281,-0.0175,-0.0131,-0.0115,-0.0106,-0.0074,-0.0072,-0.0071,-0.007,-0.007,-0.0069,-0.0069,-0.0643,-0.0651,-0.0666,-0.0683,-0.0659,-0.0568,-0.0509,-0.0394,-0.0265,-0.0249,-0.02,-0.0156,-0.0177,-0.0232,-0.0233,-0.0233,-0.0233,-0.0233,-0.0233,-0.0705,-0.0714,-0.0768,-0.0776,-0.0786,-0.0749,-0.061,-0.0522,-0.0382,-0.0295,-0.0268,-0.0171,-0.0166,-0.0183,-0.0235,-0.0235,-0.0234,-0.0234,-0.0234,-0.078,-0.0793,-0.0867,-0.09,-0.0907,-0.0867,-0.0758,-0.0556,-0.0466,-0.0361,-0.0291,-0.0288,-0.0244,-0.0236,-0.0255,-0.033,-0.0331,-0.0331,0,-0.0829,-0.084,-0.0935,-0.0983,-0.0988,-0.0918,-0.0789,-0.0658,-0.0475,-0.0476,-0.0473,-0.0404,-0.0397,-0.0357,-0.035,-0.0379,0,0,0,-0.0868,-0.0893,-0.0959,-0.1006,-0.1012,-0.0844,-0.0745,-0.0673,-0.0511,-0.0401,-0.0341,-0.0338,-0.0322,-0.0242,-0.0165,-0.0158,-0.0182,0,0]}]]